map of LFSI home
Great Circle Mapper logo
LFSI - Airport
Location
City:  St-Dizier, France
Name:St-Dizier-Robinson AB
ICAO:LFSI

Details
Type:Airport (Aerodrome, Airfield)
Use:Military
Latitude:4838'01"N (48.633536)
Longitude:454'29"E (4.908189)
Elevation:458 ft (140 m)
Runways:1
Longest:7920 × 148 ft (2414 × 45 m)

Time
Time Zone:UTC+1 (DST+2)
Local Time:

Weather
METAR:LFSI 220300Z AUTO 27009KT 9999 SCT039 SCT092 OVC210 07/05 Q1021
TAF:LFSI 220200Z 2203/2303 24015KT 9999 BKN025
TEMPO 2203/2204 24015G25KT 4000 SHRA BKN020TCU
TEMPO 2300/2303 3000 BR SCT005

Related Locations
Nearby:
Farthest:CHT: 12091 mi / 19458 km
Waitangi [Tuuta], Chatham Islands, NZ

Find:

   beyond  
but within

Other Information
Maps:
NOTAMs:
Links:
Sources:

  
flag of France   

Sectional Chart

Flight Planning
at skyvector.com

Satellite Image

Google Maps Satellite View

 

Copyright © 2004-2014 Karl L. Swartz. All rights reserved.
The Great Circle Mapper name and logo are trademarks of the Great Circle Mapper.
All other trademarks mentioned herein belong to their respective owners.
Please see credits for attibutions and further copyright information.

  Follow gcmap on Facebook Follow gcmap on Twitter

hCard Microformat

Geo Microformat